Atlanta Fulton, GA

9:14 PM EST on November 16, 2019 (GMT -0500)
Fulton County-Brown

Weather History for KFTY - August, 2019

Change the Weather History Date:

Saturday, August 24, 2019

  Actual Average Record
Temperature  
Mean Temperature 83 °F 78 °F  
Max Temperature 94 °F 88 °F 97 °F (2007)
Min Temperature 72 °F 69 °F 57 °F (1997)
Cooling Degree Days 18 13  
Month to date cooling degree days 420 341  
Year to date cooling degree days 1638 1350  
Since 1 June cooling degree days 1272 1150  
Growing Degree Days 33 (Base 50)    
Moisture  
Dew Point 70 °F    
Average Humidity 67    
Maximum Humidity 94    
Minimum Humidity 39    
Precipitation  
Precipitation 0.03 in 0.15 in 2.33 in (1967)
Month to date precipitation 1.13 3.86  
Year to date precipitation 29.79 34.54  
Sea Level Pressure  
Sea Level Pressure 30.00 in    
Wind  
Wind Speed 4 mph (East)    
Max Wind Speed 20 mph    
Max Gust Speed 25 mph    
Visibility 10 miles    
Events Rain , Thunderstorm    
T = Trace of Precipitation, MM = Missing Value Source: NWS Daily Summary

Daily Weather History Graph

Daily Weather History Graph

Search for Another Location

Airport or City:

Astronomy

Aug. 24, 2019 Rise Set
Actual Time 7:06 AM EDT 8:14 PM EDT
Civil Twilight 6:40 AM EDT 8:39 PM EDT
Nautical Twilight 6:09 AM EDT 9:10 PM EDT
Astronomical Twilight 5:37 AM EDT 9:42 PM EDT
Moon 1:04 AM EDT (8/24) 3:21 PM EDT (8/24)
Length of Visible Light 13h 59m
Length of Day
13h 07m
Last Quarter, 39% of the Moon is Illuminated
Aug 24
Last Quarter
Aug 30
New
Sep 5
First Quarter
Sep 14
Full
Sep 21
Last Quarter

Hourly Weather History & Observations

Time (EDT) Temp. Heat Index Dew Point Humidity Pressure Visibility Wind Dir Wind Speed Gust Speed Precip Events Conditions
12:53 AM 77.0 °F - 73.9 °F 90% 30.01 in 10.0 mi Calm Calm - N/A   Scattered Clouds
1:53 AM 75.9 °F - 73.0 °F 91% 30.01 in 10.0 mi Calm Calm - N/A   Partly Cloudy
2:53 AM 75.0 °F - 72.0 °F 90% 29.99 in 10.0 mi ENE 3.5 mph - N/A   Clear
3:53 AM 73.9 °F - 72.0 °F 93% 29.99 in 10.0 mi Calm Calm - N/A   Clear
4:53 AM 73.9 °F - 71.1 °F 91% 29.99 in 10.0 mi Calm Calm - N/A   Clear
5:07 AM 75.0 °F - 71.1 °F 87% 30.01 in 10.0 mi Calm Calm - N/A   Scattered Clouds
5:19 AM 73.0 °F - 71.1 °F 93% 30.01 in 10.0 mi Calm Calm - N/A   Mostly Cloudy
5:53 AM 73.0 °F - 71.1 °F 93% 29.99 in 10.0 mi Calm Calm - N/A   Overcast
7:53 AM 73.9 °F - 71.1 °F 91% 30.02 in 10.0 mi Calm Calm - N/A   Overcast
8:53 AM 75.9 °F - 73.0 °F 91% 30.04 in 10.0 mi Calm Calm - N/A   Mostly Cloudy
9:06 AM 77.0 °F - 72.0 °F 84% 30.06 in 10.0 mi North 3.5 mph - N/A   Mostly Cloudy
9:53 AM 81.0 °F 85.2 °F 72.0 °F 74% 30.04 in 10.0 mi North 3.5 mph - N/A   Clear
10:53 AM 84.9 °F 90.1 °F 71.1 °F 63% 30.03 in 10.0 mi Variable 3.5 mph - N/A   Partly Cloudy
11:53 AM 87.1 °F 89.9 °F 66.9 °F 51% 30.02 in 10.0 mi Calm Calm - N/A   Clear
12:53 PM 89.1 °F 92.1 °F 66.9 °F 48% 30.01 in 10.0 mi Variable 3.5 mph - N/A   Partly Cloudy
1:53 PM 93.0 °F 96.4 °F 66.9 °F 42% 29.99 in 10.0 mi NNE 6.9 mph - N/A   Partly Cloudy
2:53 PM 93.0 °F 95.0 °F 64.9 °F 39% 29.95 in 10.0 mi NNE 5.8 mph - N/A   Clear
3:53 PM 93.0 °F 95.9 °F 66.0 °F 41% 29.93 in 10.0 mi SSE 4.6 mph - N/A   Partly Cloudy
4:38 PM 87.1 °F 90.6 °F 68.0 °F 53% 29.97 in 10.0 mi ENE 13.8 mph - N/A Thunderstorm Mostly Cloudy
4:53 PM 89.1 °F 93.7 °F 69.1 °F 52% 29.94 in 10.0 mi ENE 13.8 mph - N/A   Mostly Cloudy
5:02 PM 87.1 °F 91.3 °F 69.1 °F 55% 29.98 in 10.0 mi ESE 12.7 mph 20.7 mph N/A Thunderstorm Mostly Cloudy
5:13 PM 82.0 °F 85.5 °F 69.1 °F 65% 29.99 in 10.0 mi ESE 15.0 mph 25.3 mph N/A Thunderstorm Mostly Cloudy
5:25 PM 81.0 °F 84.4 °F 70.0 °F 69% 29.99 in 10.0 mi SE 11.5 mph 24.2 mph N/A   Mostly Cloudy
5:53 PM 81.0 °F 84.1 °F 69.1 °F 67% 29.98 in 10.0 mi Variable 3.5 mph - N/A   Mostly Cloudy
6:53 PM 81.0 °F 84.4 °F 70.0 °F 69% 29.98 in 10.0 mi SSE 6.9 mph - N/A   Partly Cloudy
7:53 PM 80.1 °F 83.6 °F 71.1 °F 74% 29.99 in 10.0 mi ESE 5.8 mph - N/A   Scattered Clouds
8:53 PM 80.1 °F 83.8 °F 72.0 °F 76% 30.00 in 10.0 mi SSE 5.8 mph - N/A   Clear
9:53 PM 79.0 °F - 73.0 °F 82% 30.04 in 10.0 mi SSE 6.9 mph - N/A   Overcast
10:53 PM 77.0 °F - 73.9 °F 90% 30.04 in 10.0 mi East 6.9 mph - 0.03 in Rain Light Rain
11:53 PM 73.9 °F - 70.0 °F 87% 30.05 in 10.0 mi East 11.5 mph - 0.00 in   Overcast